CW1248 Weather Reports


Display with metric or nautical units.
time (UTC)temp
F
wind
direction
speed
MPH
gust
MPH
rain 1hr
in
rain 24hr
in
rain mn
in
humidity
%
barometer
mb
20260905031533 74 67 3.0 13.0 0.00 0.00 0.00 80 1015.5
20260905030010 74 55 5.0 11.0 0.00 0.00 0.00 80 1015.3
20260905024527 75 51 5.0 13.0 0.00 0.00 0.00 81 1015.2
20260905023007 75 65 3.0 9.0 0.00 0.00 0.00 80 1015.0
20260905021512 75 42 4.0 12.0 0.00 0.00 0.00 80 1014.7
20260905020016 76 59 3.0 9.0 0.00 0.00 0.00 79 1014.6
20260905014516 77 49 3.0 7.0 0.00 0.00 0.00 78 1014.5
20260905013012 78 51 1.0 5.0 0.00 0.00 0.00 75 1014.4
20260905011505 79 22 2.0 5.0 0.00 0.00 0.00 74 1014.3
20260905010027 80 34 1.0 6.0 0.00 0.00 0.00 72 1014.3
20260905004537 82 36 3.0 10.0 0.00 0.00 0.00 71 1014.1
20260905003013 83 46 3.0 9.0 0.00 0.00 0.00 69 1014.1
20260905001539 85 34 2.0 8.0 0.00 0.00 0.00 67 1014.2
20260905000011 86 38 2.0 8.0 0.00 0.00 0.00 65 1013.8
20260904234514 86 23 3.0 7.0 0.00 0.00 0.00 64 1014.0
20260904233035 87 34 2.0 8.0 0.00 0.00 0.00 63 1014.0
20260904231528 87 303 2.0 9.0 0.00 0.00 0.00 62 1014.0
20260904230026 87 316 3.0 8.0 0.00 0.00 0.00 63 1013.8
20260904224508 88 57 3.0 9.0 0.00 0.00 0.00 62 1013.7
20260904223015 88 76 1.0 9.0 0.00 0.00 0.00 63 1013.5
20260904221511 88 19 4.0 8.0 0.00 0.00 0.00 63 1013.5
20260904220032 88 294 3.0 11.0 0.00 0.00 0.00 63 1013.2
20260904214508 88 38 5.0 11.0 0.00 0.00 0.00 67 1013.2
20260904213024 88 287 4.0 11.0 0.00 0.00 0.00 66 1013.1
20260904211525 88 28 4.0 12.0 0.00 0.00 0.00 66 1013.3
20260904210021 88 28 2.0 8.0 0.00 0.00 0.00 67 1013.3
20260904204512 88 30 4.0 9.0 0.00 0.00 0.00 69 1013.3
20260904203012 88 9 2.0 10.0 0.00 0.00 0.00 67 1013.3
20260904201527 87 41 4.0 11.0 0.00 0.00 0.00 70 1013.2
20260904200028 87 28 4.0 12.0 0.00 0.00 0.00 70 1013.2
20260904194517 85 17 4.0 12.0 0.00 0.00 0.00 71 1013.3
20260904193025 86 74 5.0 11.0 0.00 0.00 0.00 72 1013.4
20260904191520 86 346 4.0 13.0 0.00 0.00 0.00 73 1013.4
20260904190013 85 39 4.0 14.0 0.00 0.00 0.00 73 1013.2
20260904184517 85 338 4.0 13.0 0.00 0.00 0.00 73 1013.2
20260904183028 84 34 4.0 12.0 0.00 0.00 0.00 77 1013.2
20260904181534 83 329 5.0 13.0 0.00 0.00 0.00 77 1013.2
20260904180004 83 309 6.0 14.0 0.00 0.00 0.00 77 1013.3
20260904174506 83 344 6.0 13.0 0.00 0.01 0.00 78 1013.3
20260904173010 84 319 4.0 13.0 0.00 0.06 0.00 76 1013.2
20260904171512 85 329 6.0 16.0 0.00 0.06 0.00 77 1013.1
20260904170012 85 337 3.0 11.0 0.00 0.06 0.00 76 1012.8
20260904164508 85 32 5.0 12.0 0.00 0.09 0.00 76 1012.8
20260904163006 84 51 2.0 9.0 0.00 0.10 0.00 77 1012.7
20260904161510 83 325 3.0 7.0 0.00 0.10 0.00 79 1012.4
20260904160017 82 66 3.0 8.0 0.00 0.10 0.00 81 1012.4
20260904154521 81 71 3.0 7.0 0.00 0.10 0.00 83 1012.3
20260904153005 80 249 2.0 8.0 0.00 0.10 0.00 85 1012.2
20260904151513 79 215 1.0 4.0 0.00 0.10 0.00 86 1012.0
20260904150021 79 146 3.0 7.0 0.00 0.10 0.00 86 1012.0
20260904144504 78 22 2.0 5.0 0.00 0.10 0.00 87 1012.0
20260904143007 77 243 3.0 7.0 0.00 0.10 0.00 90 1012.0
20260904141517 75 279 2.0 4.0 0.00 0.10 0.00 92 1012.0
20260904140015 74 221 2.0 4.0 0.00 0.10 0.00 93 1011.8
20260904134513 74 230 4.0 9.0 0.00 0.10 0.00 95 1011.9
20260904133008 73 210 0.0 5.0 0.00 0.10 0.00 95 1011.9
20260904131509 72 284 2.0 8.0 0.00 0.10 0.00 95 1011.7
20260904130009 72 309 1.0 3.0 0.00 0.10 0.00 95 1011.7
20260904124524 71 295 1.0 5.0 0.00 0.10 0.00 95 1011.4
20260904123008 71 309 1.0 4.0 0.00 0.10 0.00 95 1011.2
20260904121521 71 321 0.0 4.0 0.00 0.10 0.00 94 1011.0
20260904120016 71 51 2.0 4.0 0.00 0.10 0.00 94 1011.0
20260904114507 72 51 0.0 5.0 0.00 0.10 0.00 94 1010.8
20260904113010 72 196 0.0 3.0 0.00 0.10 0.00 94 1010.7
20260904111522 72 265 1.0 4.0 0.00 0.10 0.00 94 1010.7
20260904110026 72 265 2.0 5.0 0.00 0.10 0.00 94 1010.7
20260904104511 72 200 2.0 4.0 0.00 0.10 0.00 94 1010.7
20260904103019 72 212 2.0 3.0 0.00 0.10 0.00 94 1010.7
20260904101516 72 215 1.0 3.0 0.00 0.10 0.00 94 1010.6
20260904100014 72 218 1.0 5.0 0.00 0.10 0.00 93 1010.5
20260904094519 72 218 2.0 3.0 0.00 0.10 0.00 92 1010.6
20260904093023 72 212 1.0 4.0 0.00 0.10 0.00 91 1010.5
20260904091547 72 160 1.0 4.0 0.00 0.10 0.00 91 1010.2
20260904090024 72 115 1.0 3.0 0.00 0.10 0.00 91 1010.1
20260904084517 73 126 0.0 2.0 0.00 0.10 0.00 91 1010.1
20260904083026 73 137 0.0 2.0 0.00 0.10 0.00 91 1009.9
20260904081528 73 178 0.0 1.0 0.00 0.10 0.00 90 1010.0
20260904080035 74 238 0.0 2.0 0.00 0.10 0.00 89 1010.0
20260904074525 74 291 0.0 2.0 0.00 0.10 0.00 89 1010.0
20260904073029 75 178 0.0 2.0 0.00 0.10 0.00 89 1010.0
20260904071527 75 178 0.0 4.0 0.00 0.10 0.00 89 1010.0
20260904070023 76 265 2.0 4.0 0.00 0.10 0.00 89 1010.0
20260904064516 76 217 2.0 6.0 0.00 0.10 0.00 89 1010.0
20260904063038 76 188 2.0 5.0 0.00 0.10 0.00 88 1010.1
20260904061532 76 150 1.0 8.0 0.00 0.10 0.00 88 1010.1
20260904060031 76 137 1.0 5.0 0.00 0.10 0.00 88 1010.2
20260904054533 76 123 0.0 6.0 0.00 0.10 0.00 88 1010.1
20260904053023 76 193 3.0 6.0 0.00 0.10 0.00 88 1010.0
20260904051524 76 148 2.0 5.0 0.00 0.10 0.00 87 1010.0
20260904050033 76 160 2.0 5.0 0.00 0.10 0.00 86 1010.0
20260904044527 77 178 2.0 5.0 0.00 0.10 0.10 86 1009.9
20260904043032 77 221 0.0 4.0 0.00 0.10 0.10 85 1009.8
20260904041528 77 171 2.0 7.0 0.00 0.10 0.10 84 1009.8
20260904040028 78 119 2.0 5.0 0.00 0.10 0.10 84 1009.9
20260904034530 78 103 1.0 6.0 0.00 0.10 0.10 83 1009.8
20260904033031 78 202 2.0 6.0 0.00 0.10 0.10 83 1009.9